This is the latest recevied weather packets stored in our database for station/object W4KAB. If no packets are shown the sender has not sent any weather packets the latest 10 day(s).
| Time | Temp. | Humidity | Pressure | Rain* | Wind** | Luminosity | Snow |
|---|---|---|---|---|---|---|---|
| 1777516561 | 17.22° C | 87% | 1011.8 hPa | 0 mm | - | 0 W/m² | - |
| 1777516256 | 17.22° C | 87% | 1011.9 hPa | 0 mm | - | 0 W/m² | - |
| 1777515953 | 17.78° C | 87% | 1011.7 hPa | 0 mm | - | 0 W/m² | - |
| 1777515650 | 17.78° C | 85% | 1011.9 hPa | 0 mm | - | 0 W/m² | - |
| 1777515347 | 18.33° C | 85% | 1011.8 hPa | 0 mm | - | 0 W/m² | - |
| 1777515043 | 18.33° C | 83% | 1011.7 hPa | 0 mm | - | 0 W/m² | - |
| 1777514739 | 18.89° C | 82% | 1011.7 hPa | 0 mm | - | 0 W/m² | - |
| 1777514437 | 19.44° C | 81% | 1011.8 hPa | 0 mm | - | 0 W/m² | - |
| 1777514133 | 19.44° C | 79% | 1011.6 hPa | 0 mm | - | 0 W/m² | - |
| 1777513830 | 20° C | 79% | 1011.7 hPa | 0 mm | - | 0 W/m² | - |
| 1777513527 | 20° C | 79% | 1011.6 hPa | 0 mm | - | 0 W/m² | - |
| 1777513224 | 20.56° C | 76% | 1011.6 hPa | 0 mm | - | 0 W/m² | - |
| 1777512920 | 20.56° C | 75% | 1011.5 hPa | 0 mm | - | 0 W/m² | - |
| 1777512617 | 20.56° C | 74% | 1011.6 hPa | 0 mm | - | 0 W/m² | - |
| 1777512314 | 20.56° C | 77% | 1011.5 hPa | 0 mm | - | 0 W/m² | - |
| 1777512010 | 21.11° C | 71% | 1011.4 hPa | 0 mm | - | 0 W/m² | - |
| 1777511709 | 21.11° C | 71% | 1011.2 hPa | 0 mm | - | 0 W/m² | - |
| 1777511406 | 21.11° C | 70% | 1011.2 hPa | 0 mm | - | 0 W/m² | - |
| 1777511103 | 21.67° C | 70% | 1011.1 hPa | 0 mm | - | 0 W/m² | - |
| 1777510797 | 21.67° C | 68% | 1010.8 hPa | 0 mm | - | 0 W/m² | - |
| 1777510495 | 21.67° C | 68% | 1010.8 hPa | 0 mm | - | 0 W/m² | - |
| 1777510191 | 22.22° C | 67% | 1010.7 hPa | 0 mm | - | 0 W/m² | - |
| 1777509887 | 22.22° C | 67% | 1010.4 hPa | 0 mm | - | 0 W/m² | - |
| 1777509582 | 22.22° C | 67% | 1010.4 hPa | 0 mm | - | 0 W/m² | - |
| 1777509280 | 22.22° C | 66% | 1010.6 hPa | 0 mm | - | 0 W/m² | - |
* Rain latest hour (hover to see other rain measurements)
** Current wind speed in m/s (hover to see current wind gust speed)